Location: Newark
(47.5833°N, 8.1500°E)
Time: 18:54:05
(UTC+00:00)

Transit 2A - Pass Details

Date: 03 November 2020
Orbit: 595 x 964 km, 66.7° (Epoch: 01 December)

Event Time Altitude Azimuth Distance (km) Brightness Sun altitude
Rises 03:24:39 0° 305° (NW) 3,609 - -29.0°
Reaches altitude 10° 03:29:22 10° 336° (NNW) 2,601 - -28.2°
Exits shadow 03:30:15 11° 345° (NNW) 2,506 8.6 -28.1°
Maximum altitude 03:31:25 12° 356° (N) 2,448 8.6 -27.9°
Drops below altitude 10° 03:33:25 10° 16° (NNE) 2,529 8.9 -27.5°
Sets 03:37:49 0° 49° (NE) 3,369 10.1 -26.8°
